User: anonymous   Login
Location: Unspecified
(0.0000°N, 0.0000°E)
Time: 02:10:49
(UTC+00:00)
Language:

Vela 6A - Orbit

View from above orbital plane
View from above orbital plane
View from above satellite
View from above satellite

Ground track
Ground track

The orbit data is extracted from the following two-line orbital elements,

1 04366U 70027A   16177.36799036  .00000943  00000-0  00000+0 0  9995
2 04366  47.3258 216.7712 6316347  76.1045 359.9600  0.21480024 29890
Epoch (UTC): 25 June 2016 08:49:54
Eccentricity: 0.6316347
inclination: 47.3258°
perigee height: 37005 km
apogee height: 185782 km
right ascension of ascending node: 216.7712°
argument of perigee: 76.1045°
revolutions per day: 0.21480024
mean anomaly at epoch: 359.9600°
orbit number at epoch: 2989

The dashed part of the orbit path shows where the satellite is in the earth's shadow,  

DLR